Details From KJFK - John F Kennedy Intl
To RJOR - Tottori
Flight Number -
Tags Real
Created
Modified
Stats Distance 5,938 nm / 10,997 km
Max Altitude 0 ft / 0 m
Waypoints 2
Social Downloads 0
Likes 0
Share VATSIM

Download

Looking for another format? Having issues loading an existing format? Contact us
Advertisement - Login to hide

Notes

None

Route

KJFK SAMON

ID Type Via Altitude Latitude Longitude Leg Dist Tot Dist Heading (true) Name
O KJFK APT - 0 ft / 0 m 40.62537˚ -73.77035˚ - 0 nm - -
O SAMON FIX - 0 ft / 0 m 36.24290˚ 134.50332˚ 5937 nm 5937 nm 337° / 201° -

Altitude Profile

Advertisement - Login to hide

Weather


0- 5 10 15 20 25 30 35+ Temperature / ° C

Clouds and Precipitation
Forecast for 2018-05-20 12:00 UTC. Updated an hour ago

Ground ~20,000 ft ~40,000 ft Winds

KJFK

Details ICAO KJFK (JFK)
Name John F Kennedy Intl
Region United States
Timezone America/New_York (UTC-4.0)
Stats Elevation 13 ft / 4 m (AMSL)
Location 40.639904° -73.776661°
Runways 4
Magnetic Variation 12.983° W

METAR

KJFK 200951Z 19003KT 1/8SM R04R/P6000FT BR BKN002 OVC012 16/16 A2998 RMK AO2 SFC VIS 2 SLP151 T01560156 $

Decode

TAF

TAF AMD KJFK 200815Z 2008/2112 18011KT 3SM BR OVC004 WS020/24045KT TEMPO 2008/2010 3/4SM BR VV002 FM201200 22012KT P6SM SCT008 OVC015 TEMPO 2012/2014 6SM BR OVC008 FM201700 23011G20KT P6SM VCSH BKN025 FM202100 27011G18KT P6SM VCSH BKN035 FM202300 31010G16KT P6SM BKN250 FM210300 34009KT P6SM SCT250

Decode

Departure Runways

ID Width Length Bearing (true) Bearing (mag) Surface Threshold Offset Overrun Length
04L 151 ft / 46 m 11,358 ft / 3,462 m 30.66° 43.64° Asphalt 0 ft / 0 m 200 ft / 61 m
04R 200 ft / 61 m 8,405 ft / 2,562 m 30.67° 43.65° Asphalt 0 ft / 0 m 0 ft / 0 m
13L 151 ft / 46 m 9,986 ft / 3,044 m 120.85° 133.83° Asphalt 988 ft / 301 m 400 ft / 122 m
13R 151 ft / 46 m 14,553 ft / 4,436 m 120.83° 133.81° Asphalt 2,605 ft / 794 m 400 ft / 122 m
22L 200 ft / 61 m 8,405 ft / 2,562 m 210.68° 223.66° Asphalt 0 ft / 0 m 545 ft / 166 m
22R 151 ft / 46 m 11,358 ft / 3,462 m 210.67° 223.65° Asphalt 2,697 ft / 822 m 604 ft / 184 m
31L 151 ft / 46 m 14,553 ft / 4,436 m 300.86° 313.84° Asphalt 3,317 ft / 1,011 m 600 ft / 183 m
31R 151 ft / 46 m 9,986 ft / 3,044 m 300.87° 313.85° Asphalt 1,030 ft / 314 m 246 ft / 75 m

RJOR

Details ICAO RJOR (TTJ)
Name TOTTORI
Region Japan
Timezone Asia/Tokyo (UTC+9.0)
Stats Elevation 65 ft / 20 m (AMSL)
Location 35.530048° 134.165050°
Runways 1
Magnetic Variation 8.023° W

METAR

RJOR 201000Z 06017KT 9999 FEW025 BKN180 BKN/// 15/09 Q1020

Decode

TAF

Not found

Destination Runways

ID Width Length Bearing (true) Bearing (mag) Surface Threshold Offset Overrun Length
10 150 ft / 46 m 6,550 ft / 1,996 m 93.80° 101.82° Asphalt 0 ft / 0 m 190 ft / 58 m
28 150 ft / 46 m 6,550 ft / 1,996 m 273.81° 281.83° Asphalt 0 ft / 0 m 190 ft / 58 m